www.cux-wetter.de
Wetterdaten: Sonntag, 28.09.2014
Datum Zeit Temp. A. Feuchte A. Luftdruck Regen Wind Richtung Richtung Sonnenschein Solar Taupunkt Windchill Windben
28.09.2014 00:00 12,5 C 82 % 1025,5 hPa 0,0 l/m 0,0 km/h (0 Bft) W-SW 245 0 min 0 W/m 9,5 C 12,5 C 0,0 km/h (0 Bft)
28.09.2014 00:15 12,6 C 82 % 1025,5 hPa 0,0 l/m 0,1 km/h (0 Bft) W-SW 245 0 min 0 W/m 9,6 C 12,6 C 0,1 km/h (0 Bft)
28.09.2014 00:30 12,7 C 82 % 1025,5 hPa 0,0 l/m 4,8 km/h (1 Bft) W-SW 245 0 min 0 W/m 9,7 C 12,7 C 4,8 km/h (1 Bft)
28.09.2014 00:45 12,6 C 82 % 1025,5 hPa 0,0 l/m 0,0 km/h (0 Bft) W-SW 245 0 min 0 W/m 9,6 C 12,6 C 0,0 km/h (0 Bft)
28.09.2014 01:00 12,6 C 83 % 1024,5 hPa 0,0 l/m 0,3 km/h (0 Bft) W-SW 245 0 min 0 W/m 9,8 C 12,6 C 0,3 km/h (0 Bft)
28.09.2014 01:15 12,7 C 83 % 1024,5 hPa 0,0 l/m 0,3 km/h (0 Bft) W-SW 245 0 min 0 W/m 9,9 C 12,7 C 0,3 km/h (0 Bft)
28.09.2014 01:30 12,7 C 83 % 1024,5 hPa 0,0 l/m 1,3 km/h (1 Bft) W-SW 245 0 min 0 W/m 9,9 C 12,7 C 1,3 km/h (1 Bft)
28.09.2014 01:45 12,8 C 84 % 1024,5 hPa 0,0 l/m 0,0 km/h (0 Bft) W-SW 245 0 min 0 W/m 10,2 C 12,8 C 0,0 km/h (0 Bft)
28.09.2014 02:00 12,9 C 84 % 1024,5 hPa 0,0 l/m 4,3 km/h (1 Bft) W-SW 245 0 min 0 W/m 10,3 C 12,9 C 4,3 km/h (1 Bft)
28.09.2014 02:15 13,1 C 84 % 1024,5 hPa 0,0 l/m 0,4 km/h (0 Bft) W-SW 245 0 min 0 W/m 10,5 C 13,1 C 0,4 km/h (0 Bft)
28.09.2014 02:30 13,2 C 85 % 1024,5 hPa 0,0 l/m 4,8 km/h (1 Bft) W-SW 245 0 min 0 W/m 10,7 C 13,2 C 4,8 km/h (1 Bft)
28.09.2014 02:45 13,4 C 85 % 1024,5 hPa 0,0 l/m 8,1 km/h (2 Bft) W-SW 245 0 min 0 W/m 10,9 C 12,4 C 8,1 km/h (2 Bft)
28.09.2014 03:00 13,6 C 85 % 1024,5 hPa 0,0 l/m 10,5 km/h (2 Bft) SW 220 0 min 0 W/m 11,1 C 11,3 C 10,5 km/h (2 Bft)
28.09.2014 03:15 13,6 C 85 % 1024,5 hPa 0,0 l/m 7,8 km/h (2 Bft) SW 220 0 min 0 W/m 11,1 C 12,7 C 7,8 km/h (2 Bft)
28.09.2014 03:30 13,7 C 85 % 1024,5 hPa 0,0 l/m 7,4 km/h (2 Bft) SW 215 0 min 0 W/m 11,2 C 13,1 C 7,4 km/h (2 Bft)
28.09.2014 03:45 13,8 C 85 % 1024,5 hPa 0,0 l/m 8,3 km/h (2 Bft) W-SW 245 0 min 0 W/m 11,3 C 12,7 C 8,3 km/h (2 Bft)
28.09.2014 04:00 13,8 C 86 % 1024,5 hPa 0,0 l/m 9,7 km/h (2 Bft) SW 235 0 min 0 W/m 11,5 C 11,9 C 9,7 km/h (2 Bft)
28.09.2014 04:15 13,9 C 86 % 1024,5 hPa 0,0 l/m 8,0 km/h (2 Bft) W-SW 240 0 min 0 W/m 11,6 C 12,9 C 8,0 km/h (2 Bft)
28.09.2014 04:30 14,0 C 86 % 1024,5 hPa 0,0 l/m 9,5 km/h (2 Bft) SW 230 0 min 0 W/m 11,7 C 12,3 C 9,5 km/h (2 Bft)
28.09.2014 04:44 14,0 C 86 % 1023,5 hPa 0,0 l/m 8,5 km/h (2 Bft) W-SW 245 0 min 0 W/m 11,7 C 12,8 C 8,5 km/h (2 Bft)
28.09.2014 05:00 14,0 C 86 % 1023,5 hPa 0,0 l/m 10,8 km/h (2 Bft) W 260 0 min 0 W/m 11,7 C 11,6 C 10,8 km/h (2 Bft)
28.09.2014 05:15 14,0 C 86 % 1023,5 hPa 0,0 l/m 11,8 km/h (2 Bft) W 260 0 min 0 W/m 11,7 C 11,2 C 11,8 km/h (2 Bft)
28.09.2014 05:30 14,1 C 86 % 1023,5 hPa 0,0 l/m 11,3 km/h (2 Bft) W-SW 250 0 min 0 W/m 11,8 C 11,5 C 11,3 km/h (2 Bft)
28.09.2014 05:45 14,2 C 86 % 1023,5 hPa 0,0 l/m 12,1 km/h (2 Bft) W-SW 250 0 min 0 W/m 11,9 C 11,3 C 12,1 km/h (2 Bft)
28.09.2014 06:00 14,2 C 86 % 1023,5 hPa 0,0 l/m 9,5 km/h (2 Bft) W-SW 250 0 min 0 W/m 11,9 C 12,5 C 9,5 km/h (2 Bft)
28.09.2014 06:15 14,2 C 86 % 1023,5 hPa 0,0 l/m 9,0 km/h (2 Bft) W-SW 255 0 min 0 W/m 11,9 C 12,7 C 9,0 km/h (2 Bft)
28.09.2014 06:30 14,2 C 86 % 1023,5 hPa 0,0 l/m 6,8 km/h (2 Bft) W-SW 240 0 min 0 W/m 11,9 C 14,0 C 6,8 km/h (2 Bft)
28.09.2014 06:45 14,2 C 86 % 1024,5 hPa 0,0 l/m 7,0 km/h (2 Bft) W-SW 250 0 min 0 W/m 11,9 C 13,8 C 7,0 km/h (2 Bft)
28.09.2014 07:00 14,2 C 86 % 1024,5 hPa 0,0 l/m 8,1 km/h (2 Bft) W-SW 240 0 min 0 W/m 11,9 C 13,2 C 8,1 km/h (2 Bft)
28.09.2014 07:15 14,2 C 86 % 1023,5 hPa 0,0 l/m 7,5 km/h (2 Bft) W-SW 250 0 min 0 W/m 11,9 C 13,5 C 7,5 km/h (2 Bft)
28.09.2014 07:30 14,1 C 87 % 1023,5 hPa 0,0 l/m 8,0 km/h (2 Bft) SW 235 0 min 0 W/m 12,0 C 13,2 C 8,0 km/h (2 Bft)
28.09.2014 07:45 14,1 C 87 % 1023,5 hPa 0,0 l/m 8,7 km/h (2 Bft) SW 230 0 min 0 W/m 12,0 C 12,8 C 8,7 km/h (2 Bft)
28.09.2014 08:00 14,1 C 87 % 1023,5 hPa 0,0 l/m 6,1 km/h (2 Bft) SW 225 0 min 0 W/m 12,0 C 14,1 C 6,1 km/h (2 Bft)
28.09.2014 08:15 14,2 C 87 % 1023,5 hPa 0,0 l/m 9,5 km/h (2 Bft) SW 230 0 min 0 W/m 12,1 C 12,5 C 9,5 km/h (2 Bft)
28.09.2014 08:30 14,2 C 86 % 1023,5 hPa 0,0 l/m 9,9 km/h (2 Bft) SW 235 0 min 0 W/m 11,9 C 12,3 C 9,9 km/h (2 Bft)
28.09.2014 08:45 14,3 C 86 % 1023,5 hPa 0,0 l/m 7,9 km/h (2 Bft) W-SW 250 0 min 0 W/m 12,0 C 13,4 C 7,9 km/h (2 Bft)
28.09.2014 09:00 14,4 C 86 % 1023,5 hPa 0,0 l/m 5,5 km/h (2 Bft) S-SW 210 0 min 0 W/m 12,1 C 14,4 C 5,5 km/h (2 Bft)
28.09.2014 09:15 14,6 C 86 % 1023,5 hPa 0,0 l/m 7,0 km/h (2 Bft) SW 215 0 min 0 W/m 12,3 C 14,3 C 7,0 km/h (2 Bft)
28.09.2014 09:30 14,8 C 85 % 1023,5 hPa 0,0 l/m 8,8 km/h (2 Bft) S-SW 200 0 min 0 W/m 12,3 C 13,5 C 8,8 km/h (2 Bft)
28.09.2014 09:45 15,0 C 84 % 1023,5 hPa 0,0 l/m 8,1 km/h (2 Bft) SW 225 0 min 0 W/m 12,3 C 14,0 C 8,1 km/h (2 Bft)
28.09.2014 10:00 15,2 C 84 % 1023,5 hPa 0,0 l/m 8,0 km/h (2 Bft) SW 220 0 min 0 W/m 12,5 C 14,3 C 8,0 km/h (2 Bft)
28.09.2014 10:15 15,6 C 82 % 1023,5 hPa 0,0 l/m 10,9 km/h (2 Bft) W 260 0 min 0 W/m 12,5 C 13,4 C 10,9 km/h (2 Bft)
28.09.2014 10:30 16,1 C 80 % 1023,5 hPa 0,0 l/m 18,5 km/h (3 Bft) W-SW 255 0 min 0 W/m 12,6 C 11,5 C 18,5 km/h (3 Bft)
28.09.2014 10:45 16,1 C 78 % 1023,5 hPa 0,0 l/m 15,0 km/h (3 Bft) W-SW 255 0 min 0 W/m 12,3 C 12,5 C 15,0 km/h (3 Bft)
28.09.2014 11:00 16,5 C 78 % 1024,5 hPa 0,0 l/m 15,0 km/h (3 Bft) W 265 0 min 0 W/m 12,6 C 13,0 C 15,0 km/h (3 Bft)
28.09.2014 11:15 17,0 C 74 % 1024,5 hPa 0,0 l/m 19,5 km/h (3 Bft) W-SW 255 0 min 0 W/m 12,3 C 12,4 C 19,5 km/h (3 Bft)
28.09.2014 11:30 17,5 C 74 % 1023,5 hPa 0,0 l/m 16,6 km/h (3 Bft) W-SW 255 0 min 0 W/m 12,8 C 13,8 C 16,6 km/h (3 Bft)
28.09.2014 11:45 18,2 C 71 % 1023,5 hPa 0,0 l/m 17,9 km/h (3 Bft) W-SW 250 0 min 0 W/m 12,9 C 14,3 C 17,9 km/h (3 Bft)
28.09.2014 12:00 18,6 C 68 % 1023,5 hPa 0,0 l/m 20,7 km/h (4 Bft) W 265 0 min 0 W/m 12,6 C 14,3 C 20,7 km/h (4 Bft)
28.09.2014 12:15 18,9 C 67 % 1023,5 hPa 0,0 l/m 16,6 km/h (3 Bft) W 260 0 min 0 W/m 12,6 C 15,5 C 16,6 km/h (3 Bft)
28.09.2014 12:30 19,0 C 67 % 1023,5 hPa 0,0 l/m 18,2 km/h (3 Bft) W 260 0 min 0 W/m 12,7 C 15,3 C 18,2 km/h (3 Bft)
28.09.2014 12:45 19,3 C 67 % 1023,5 hPa 0,0 l/m 14,6 km/h (3 Bft) W 260 0 min 0 W/m 13,0 C 16,5 C 14,6 km/h (3 Bft)
28.09.2014 13:00 19,5 C 65 % 1023,5 hPa 0,0 l/m 17,3 km/h (3 Bft) W 260 0 min 0 W/m 12,7 C 16,1 C 17,3 km/h (3 Bft)
28.09.2014 13:15 19,8 C 65 % 1023,5 hPa 0,0 l/m 16,6 km/h (3 Bft) W-SW 245 0 min 0 W/m 13,0 C 16,6 C 16,6 km/h (3 Bft)
28.09.2014 13:30 19,8 C 65 % 1023,5 hPa 0,0 l/m 15,1 km/h (3 Bft) SW 225 0 min 0 W/m 13,0 C 17,0 C 15,1 km/h (3 Bft)
28.09.2014 13:45 19,8 C 64 % 1023,5 hPa 0,0 l/m 15,6 km/h (3 Bft) W 260 0 min 0 W/m 12,8 C 16,9 C 15,6 km/h (3 Bft)
28.09.2014 14:00 19,8 C 65 % 1023,5 hPa 0,0 l/m 16,0 km/h (3 Bft) W 260 0 min 0 W/m 13,0 C 16,8 C 16,0 km/h (3 Bft)
28.09.2014 14:15 20,0 C 64 % 1023,5 hPa 0,0 l/m 17,3 km/h (3 Bft) W-SW 255 0 min 0 W/m 13,0 C 16,7 C 17,3 km/h (3 Bft)
28.09.2014 14:30 19,8 C 65 % 1023,5 hPa 0,0 l/m 18,5 km/h (3 Bft) W-SW 255 0 min 0 W/m 13,0 C 16,2 C 18,5 km/h (3 Bft)
28.09.2014 14:45 19,8 C 65 % 1022,5 hPa 0,0 l/m 13,1 km/h (3 Bft) W 260 0 min 0 W/m 13,0 C 17,5 C 13,1 km/h (3 Bft)
28.09.2014 15:00 19,8 C 65 % 1022,5 hPa 0,0 l/m 10,5 km/h (2 Bft) W 260 0 min 0 W/m 13,0 C 18,3 C 10,5 km/h (2 Bft)
28.09.2014 15:14 19,9 C 66 % 1023,5 hPa 0,0 l/m 13,8 km/h (3 Bft) W-NW 285 0 min 0 W/m 13,4 C 17,4 C 13,8 km/h (3 Bft)
28.09.2014 15:30 19,9 C 66 % 1022,5 hPa 0,0 l/m 11,7 km/h (2 Bft) W 260 0 min 0 W/m 13,4 C 18,0 C 11,7 km/h (2 Bft)
28.09.2014 15:45 19,9 C 66 % 1022,5 hPa 0,0 l/m 10,2 km/h (2 Bft) W-SW 255 0 min 0 W/m 13,4 C 18,5 C 10,2 km/h (2 Bft)
28.09.2014 15:59 19,9 C 66 % 1022,5 hPa 0,0 l/m 10,1 km/h (2 Bft) W-SW 255 0 min 0 W/m 13,4 C 18,5 C 10,1 km/h (2 Bft)
28.09.2014 16:15 19,8 C 65 % 1022,5 hPa 0,0 l/m 7,6 km/h (2 Bft) W-SW 245 0 min 0 W/m 13,0 C 19,3 C 7,6 km/h (2 Bft)
28.09.2014 16:30 19,9 C 64 % 1022,5 hPa 0,0 l/m 0,7 km/h (0 Bft) SW 225 0 min 0 W/m 12,9 C 19,9 C 0,7 km/h (0 Bft)
28.09.2014 16:45 19,7 C 65 % 1022,5 hPa 0,0 l/m 0,0 km/h (0 Bft) SW 215 0 min 0 W/m 12,9 C 19,7 C 0,0 km/h (0 Bft)
28.09.2014 17:00 19,4 C 66 % 1021,5 hPa 0,0 l/m 0,1 km/h (0 Bft) SW 215 0 min 0 W/m 12,9 C 19,4 C 0,1 km/h (0 Bft)
28.09.2014 17:15 18,9 C 68 % 1021,5 hPa 0,0 l/m 2,6 km/h (1 Bft) O-NO 70 0 min 0 W/m 12,9 C 18,9 C 2,6 km/h (1 Bft)
28.09.2014 17:30 18,7 C 69 % 1021,5 hPa 0,0 l/m 5,0 km/h (1 Bft) O-NO 65 0 min 0 W/m 12,9 C 18,7 C 5,0 km/h (1 Bft)
28.09.2014 17:45 18,4 C 70 % 1021,5 hPa 0,0 l/m 5,9 km/h (2 Bft) SO 135 0 min 0 W/m 12,8 C 18,4 C 5,9 km/h (2 Bft)
28.09.2014 18:00 18,3 C 71 % 1021,5 hPa 0,0 l/m 1,1 km/h (1 Bft) O 90 0 min 0 W/m 12,9 C 18,3 C 1,1 km/h (1 Bft)
28.09.2014 18:15 18,0 C 72 % 1021,5 hPa 0,0 l/m 0,0 km/h (0 Bft) O 85 0 min 0 W/m 12,9 C 18,0 C 0,0 km/h (0 Bft)
28.09.2014 18:29 17,6 C 72 % 1021,5 hPa 0,0 l/m 0,0 km/h (0 Bft) O 85 0 min 0 W/m 12,5 C 17,6 C 0,0 km/h (0 Bft)
28.09.2014 18:45 17,2 C 73 % 1021,5 hPa 0,0 l/m 0,0 km/h (0 Bft) O 85 0 min 0 W/m 12,3 C 17,2 C 0,0 km/h (0 Bft)
28.09.2014 19:00 16,9 C 74 % 1021,5 hPa 0,0 l/m 0,0 km/h (0 Bft) O 80 0 min 0 W/m 12,2 C 16,9 C 0,0 km/h (0 Bft)
28.09.2014 19:15 16,6 C 75 % 1021,5 hPa 0,0 l/m 0,0 km/h (0 Bft) O 80 0 min 0 W/m 12,1 C 16,6 C 0,0 km/h (0 Bft)
28.09.2014 19:30 16,2 C 75 % 1021,5 hPa 0,0 l/m 0,0 km/h (0 Bft) O 80 0 min 0 W/m 11,8 C 16,2 C 0,0 km/h (0 Bft)
28.09.2014 19:45 16,0 C 76 % 1021,5 hPa 0,0 l/m 0,0 km/h (0 Bft) O 85 0 min 0 W/m 11,8 C 16,0 C 0,0 km/h (0 Bft)
28.09.2014 20:00 16,0 C 77 % 1021,5 hPa 0,0 l/m 0,0 km/h (0 Bft) O 80 0 min 0 W/m 12,0 C 16,0 C 0,0 km/h (0 Bft)
28.09.2014 20:15 15,9 C 77 % 1021,5 hPa 0,0 l/m 0,0 km/h (0 Bft) O 80 0 min 0 W/m 11,9 C 15,9 C 0,0 km/h (0 Bft)
28.09.2014 20:30 15,6 C 77 % 1021,5 hPa 0,0 l/m 0,0 km/h (0 Bft) O 80 0 min 0 W/m 11,6 C 15,6 C 0,0 km/h (0 Bft)
28.09.2014 20:45 15,4 C 78 % 1021,5 hPa 0,0 l/m 0,0 km/h (0 Bft) O 85 0 min 0 W/m 11,6 C 15,4 C 0,0 km/h (0 Bft)
28.09.2014 21:00 15,2 C 79 % 1021,5 hPa 0,0 l/m 0,0 km/h (0 Bft) O 85 0 min 0 W/m 11,6 C 15,2 C 0,0 km/h (0 Bft)
28.09.2014 21:15 15,0 C 79 % 1021,5 hPa 0,0 l/m 0,0 km/h (0 Bft) O 85 0 min 0 W/m 11,4 C 15,0 C 0,0 km/h (0 Bft)
28.09.2014 21:30 15,0 C 80 % 1021,5 hPa 0,0 l/m 0,0 km/h (0 Bft) O 85 0 min 0 W/m 11,6 C 15,0 C 0,0 km/h (0 Bft)
28.09.2014 21:44 15,0 C 80 % 1021,5 hPa 0,0 l/m 0,0 km/h (0 Bft) O 85 0 min 0 W/m 11,6 C 15,0 C 0,0 km/h (0 Bft)
28.09.2014 22:00 14,8 C 81 % 1021,5 hPa 0,0 l/m 0,2 km/h (0 Bft) O 90 0 min 0 W/m 11,6 C 14,8 C 0,2 km/h (0 Bft)
28.09.2014 22:15 14,8 C 81 % 1021,5 hPa 0,0 l/m 0,0 km/h (0 Bft) O 90 0 min 0 W/m 11,6 C 14,8 C 0,0 km/h (0 Bft)
28.09.2014 22:30 14,8 C 81 % 1021,5 hPa 0,0 l/m 0,0 km/h (0 Bft) O 90 0 min 0 W/m 11,6 C 14,8 C 0,0 km/h (0 Bft)
28.09.2014 22:45 14,7 C 82 % 1021,5 hPa 0,0 l/m 0,0 km/h (0 Bft) O 90 0 min 0 W/m 11,7 C 14,7 C 0,0 km/h (0 Bft)
28.09.2014 23:00 14,6 C 82 % 1021,5 hPa 0,0 l/m 0,0 km/h (0 Bft) O 90 0 min 0 W/m 11,6 C 14,6 C 0,0 km/h (0 Bft)
28.09.2014 23:15 14,5 C 82 % 1021,5 hPa 0,0 l/m 0,0 km/h (0 Bft) O 90 0 min 0 W/m 11,5 C 14,5 C 0,0 km/h (0 Bft)
28.09.2014 23:30 14,4 C 83 % 1021,5 hPa 0,0 l/m 0,0 km/h (0 Bft) O 90 0 min 0 W/m 11,5 C 14,4 C 0,0 km/h (0 Bft)
28.09.2014 23:45 14,4 C 83 % 1021,5 hPa 0,0 l/m 0,0 km/h (0 Bft) O 90 0 min 0 W/m 11,5 C 14,4 C 0,0 km/h (0 Bft)
_ Min-Zeit 00:00 13:45 17:00 - 00:00 - - - - 00:00 05:15 00:00
Minimum _ 12,5 C 64 % 1021,5 hPa - 0,0 km/h (0 Bft) - - - - 9,5 C 11,2 C 0,0 km/h (0 Bft)
_ Max-Zeit 14:15 07:30 00:00 00:00 12:00 - - 00:00 00:00 15:14 16:30 12:00
Maximum _ 20,0 C 87 % 1025,5 hPa 0,0 l/m 20,7 km/h
W (4 Bft)
- - 0 min 0 W/m 13,4 C 19,9 C 20,7 km/h
W (4 Bft)
Durchschnitt _ 15,9 C 78 % 1023,1 hPa #0,0 l/m 7,0 km/h (2 Bft) W-SW - #0 min. 0 W/m 12,0 C 14,8 C 7,0 km/h (2 Bft)
copyright by Holger Just